sat.trackr.live / text

‹ back to catalog

STARLINK-30903

NORAD 58355 · 2023-177E

PAYLOAD ACTIVE UNKNOWN

§ Identity

Operator
Country
US
Launch date
2023-11-18
Launch site
AFETR
Launch vehicle
Mass (kg)
RCS (m²)

Purposes: comms

External: N2YO · Heavens-Above · Gunter

§ Orbital elements

Epoch: 2026-09-20T12:01:05.510208Z

Period
94.27 min
Inclination
43.0048°
Eccentricity
0.0001639
Mean motion
15.27574104 rev/d
Perigee alt
481.9 km
Apogee alt
484.2 km
Semi-major
6,861.2 km
B*
-3.6887e-5
RAAN
330.2152°
Arg perigee
268.2094°
Mean anomaly
91.8570°
Rev number
15,802

§ Raw data

STARLINK-309031 58355U 23177E   26263.50075822 -.00001277  00000+0 -36887-4 0  99982 58355  43.0048 330.2152 0001639 268.2094  91.8570 15.27574104158025

JSON: /api/v1/satellites/58355 · /tle

For live sub-satellite position, see the globe view (requires WebGL).

§ Visibility from observer

Set your observer location to see the next 7 days of passes ≥ 10°. The values pass through the URL so the page stays shareable.

No JS? Fill the form by hand. The geolocation button needs JavaScript.